Regional Weather Roundup
Issued by NWS Green Bay, WI

Home | Current Version | Previous Version | Graphics & Text | Print | Product List | Glossary Off
Versions: 1 2 3 4 5 6 7 8 9 10 11 12 13 14 15 16 17 18 19 20 21 22 23 24 25 26 27 28 29 30 31 32 33 34 35 36 37 38 39 40 41 42 43 44 45 46 47 48 49 50

000
ASUS43 KGRB 221411
RWRGRB

NORTH-CENTRAL AND NORTHEAST WISCONSIN REGIONAL WEATHER ROUNDUP
NATIONAL WEATHER SERVICE GREEN BAY WI
900 AM CDT SUN OCT 22 2017

WIZ005-009-010>012-018-019-221500-
NORTH CENTRAL WISCONSIN

CITY           SKY/WX    TMP DP  RH WIND       PRES   REMARKS
IRONWOOD       LGT RAIN  49  45  86 SW9       29.88R
MANITOWISH WTR LGT RAIN  47  47 100 SW5       29.89S
ARBOR VITAE    CLOUDY    49  47  93 W6        29.91R
EAGLE RIVER    NOT AVBL
LAND O LAKES   CLOUDY    49  46  89 W3        29.91R
RHINELANDER    CLOUDY    50  49  96 W8        29.93R
PHILLIPS       LGT RAIN  47  46  98 SW5       29.90S
ANTIGO         DRIZZLE   49  47  92 NW8       29.91S
TOMAHAWK       RAIN      48  45  90 W3        29.93R
MERRILL        LGT RAIN  50  48  93 W8        29.93S
$$

WIZ013-073-221500-
NORTHEAST WISCONSIN

CITY           SKY/WX    TMP DP  RH WIND       PRES   REMARKS
IRON MOUNTAIN  CLOUDY    62  56  80 S6        29.84R
MARINETTE      LGT RAIN  63  57  81 S9        29.87R
OCONTO         CLOUDY    62  56  83 S5        29.87R
$$

WIZ017-030-035>037-045-221500-
CENTRAL WISCONSIN

CITY           SKY/WX    TMP DP  RH WIND       PRES   REMARKS
MEDFORD        LGT RAIN  47  45  91 W7        29.94R
WAUSAU         LGT RAIN  50  47  89 W9        29.91R
MOSINEE        CLOUDY    50  50 100 W7        29.95R
MARSHFIELD     CLOUDY    50  45  83 W9        29.93R
WISC RAPIDS    LGT RAIN  51  50  96 NW5       29.95R
STEVENS POINT  CLOUDY    49  48  97 W5        29.94R
WAUPACA        LGT RAIN  55  52  89 NW9       29.92S
SHAWANO        DRIZZLE   57  53  88 W8        29.90R
CLINTONVILLE   RAIN      55  52  88 W9        29.91R
WAUTOMA        LGT RAIN N/A N/A N/A NW6       29.93S
$$

WIZ038-039-048-051-221500-
FOX VALLEY

CITY           SKY/WX    TMP DP  RH WIND       PRES   REMARKS
NWS GREEN BAY  LGT RAIN  62  62 100 S9        29.88R
APPLETON       CLOUDY    63  59  88 W7        29.87R
OSHKOSH        LGT RAIN  58  57  97 NW13G21   29.90R
FOND DU LAC    LGT RAIN  63  59  87 S8        29.89S
$$

WIZ022-050-052-221500-
EAST CENTRAL WISCONSIN

CITY           SKY/WX    TMP DP  RH WIND       PRES   REMARKS
EPHRAIM        CLOUDY    60  55  83 S16G23    29.88S
WASHINGTON ISL CLOUDY    56  53  88 S12G20    29.88S
STURGEON BAY   LGT RAIN  60  55  83 S17G24    29.90R
MANITOWOC      CLOUDY    60  55  83 S9        29.91R
SHEBOYGAN      PTSUNNY   61  57  87 S8        29.91R
$$

LMZ563-521-522-541>543-221500-
LAKESHORE

STATION/POSITION TIME  TEMP    WIND        PRES    VSBY  WAVE
                       AIR SEA DIR/SP/G                  HT/PER
                 (UTC) (F)     (DEG/KT/KT) (MB)    (MI)  (FT/S)
SHEBOYGAN LKSHOR 1400   55     180/ 18/ 19 1012.5F
KEWAUNEE LKSHORE 1348   53     170/ 12/ 14 1011.9R
NORTHPORT PIER   1340   60     160/  9/ 19 1012.2R
N MID LAKE BUOY  1350   62 58  180/ 19/ 21 1012.8R         6/ 7
S GREEN BAY BUOY 1400   61 58  180/ 16/ 19 1011.5
SISTER BAY LKSHO 1404   61     170/ 17/ 23   N/A
MENOMINEE LKSHOR 1348   60     180/  9/ 11 1011.2R
$$




USA.gov is the U.S. government's official web portal to all federal, state and local government web resources and services.